TimeCDT,TemperatureF,Dew PointF,Humidity,Sea Level PressureIn,VisibilityMPH,Wind Direction,Wind SpeedMPH,Gust SpeedMPH,PrecipitationIn,Events,Conditions,WindDirDegrees,DateUTC
12:15 AM,37.4,28.4,70,29.93,10.0,Calm,Calm,-,N/A,,Mostly Cloudy,0,2012-11-01 05:15:00
12:35 AM,39.2,28.4,65,29.93,10.0,Calm,Calm,-,N/A,,Overcast,0,2012-11-01 05:35:00
12:55 AM,39.2,30.2,70,29.92,10.0,Calm,Calm,-,N/A,,Overcast,0,2012-11-01 05:55:00
1:15 AM,39.2,30.2,70,29.92,10.0,Calm,Calm,-,N/A,,Overcast,0,2012-11-01 06:15:00
1:35 AM,41.0,30.2,65,29.93,10.0,Calm,Calm,-,N/A,,Overcast,0,2012-11-01 06:35:00
1:55 AM,42.8,32.0,66,29.93,10.0,Calm,Calm,-,N/A,,Overcast,0,2012-11-01 06:55:00
2:15 AM,42.8,33.8,70,29.93,10.0,Calm,Calm,-,N/A,,Overcast,0,2012-11-01 07:15:00
2:35 AM,44.6,35.6,71,29.93,10.0,Calm,Calm,-,N/A,,Overcast,0,2012-11-01 07:35:00
2:55 AM,46.4,35.6,66,29.93,10.0,Calm,Calm,-,N/A,,Overcast,0,2012-11-01 07:55:00
3:15 AM,46.4,35.6,66,29.93,10.0,Calm,Calm,-,N/A,,Overcast,0,2012-11-01 08:15:00
3:35 AM,46.4,35.6,66,29.93,10.0,Calm,Calm,-,N/A,,Overcast,0,2012-11-01 08:35:00
3:55 AM,46.4,35.6,66,29.93,10.0,NW,10.4,-,N/A,,Overcast,320,2012-11-01 08:55:00
4:15 AM,46.4,35.6,66,29.93,10.0,NW,13.8,-,N/A,,Overcast,310,2012-11-01 09:15:00
4:35 AM,46.4,35.6,66,29.94,10.0,NW,16.1,-,N/A,,Overcast,320,2012-11-01 09:35:00
4:55 AM,46.4,35.6,66,29.94,10.0,NW,13.8,19.6,N/A,,Overcast,320,2012-11-01 09:55:00
5:15 AM,44.6,35.6,71,29.94,10.0,NW,16.1,-,N/A,,Overcast,310,2012-11-01 10:15:00
5:35 AM,44.6,35.6,71,29.95,10.0,NW,16.1,-,N/A,,Overcast,320,2012-11-01 10:35:00
5:55 AM,44.6,35.6,71,29.96,10.0,NW,13.8,-,N/A,,Overcast,320,2012-11-01 10:55:00
6:15 AM,42.8,35.6,76,29.96,10.0,NW,13.8,-,N/A,,Scattered Clouds,320,2012-11-01 11:15:00
6:35 AM,41.0,35.6,81,29.96,10.0,NNW,17.3,-,N/A,,Clear,330,2012-11-01 11:35:00
6:55 AM,39.2,35.6,87,29.97,10.0,NNW,16.1,20.7,N/A,,Clear,330,2012-11-01 11:55:00
7:15 AM,39.2,33.8,81,29.97,10.0,NNW,16.1,-,N/A,,Clear,330,2012-11-01 12:15:00
7:35 AM,39.2,33.8,81,29.97,8.0,NNW,16.1,-,N/A,,Partly Cloudy,330,2012-11-01 12:35:00
7:55 AM,39.2,33.8,81,29.98,6.0,NNW,15.0,-,N/A,,Clear,330,2012-11-01 12:55:00
8:35 AM,39.2,33.8,81,29.98,7.0,NNW,13.8,18.4,N/A,,Clear,340,2012-11-01 13:35:00
8:55 AM,39.2,33.8,81,29.99,9.0,NNW,15.0,-,N/A,,Partly Cloudy,330,2012-11-01 13:55:00
9:15 AM,41.0,35.6,81,29.99,9.0,NNW,18.4,21.9,N/A,,Mostly Cloudy,340,2012-11-01 14:15:00
9:35 AM,41.0,35.6,81,30.00,10.0,North,17.3,-,N/A,,Overcast,350,2012-11-01 14:35:00
10:15 AM,42.8,32.0,66,30.00,10.0,North,17.3,21.9,N/A,,Overcast,350,2012-11-01 15:15:00
10:35 AM,42.8,30.2,61,30.00,10.0,NNW,16.1,-,N/A,,Overcast,340,2012-11-01 15:35:00
10:55 AM,42.8,30.2,61,30.01,10.0,North,18.4,21.9,N/A,,Mostly Cloudy,350,2012-11-01 15:55:00
11:15 AM,42.8,30.2,61,30.01,10.0,North,18.4,-,N/A,,Scattered Clouds,350,2012-11-01 16:15:00
11:35 AM,44.6,30.2,57,30.01,10.0,North,13.8,19.6,N/A,,Scattered Clouds,360,2012-11-01 16:35:00
11:55 AM,44.6,30.2,57,30.01,10.0,NNW,15.0,-,N/A,,Partly Cloudy,340,2012-11-01 16:55:00
12:15 PM,44.6,28.4,53,30.01,10.0,North,15.0,25.3,N/A,,Clear,350,2012-11-01 17:15:00
12:35 PM,46.4,28.4,50,30.00,10.0,NNW,16.1,20.7,N/A,,Clear,330,2012-11-01 17:35:00
1:15 PM,46.4,28.4,50,29.99,10.0,NW,15.0,20.7,N/A,,Clear,320,2012-11-01 18:15:00
1:35 PM,46.4,28.4,50,29.99,10.0,NNW,15.0,-,N/A,,Clear,340,2012-11-01 18:35:00
1:55 PM,46.4,28.4,50,29.98,10.0,NNW,13.8,19.6,N/A,,Clear,330,2012-11-01 18:55:00
2:15 PM,46.4,30.2,53,29.98,10.0,NNW,15.0,19.6,N/A,,Clear,330,2012-11-01 19:15:00
2:35 PM,46.4,28.4,50,29.97,10.0,NNW,16.1,-,N/A,,Clear,340,2012-11-01 19:35:00
2:55 PM,46.4,28.4,50,29.97,10.0,NNW,16.1,-,N/A,,Clear,330,2012-11-01 19:55:00
3:15 PM,48.2,26.6,43,29.97,10.0,NW,15.0,23.0,N/A,,Clear,310,2012-11-01 20:15:00
3:35 PM,48.2,26.6,43,29.97,10.0,NNW,12.7,-,N/A,,Clear,330,2012-11-01 20:35:00
3:55 PM,46.4,28.4,50,29.97,10.0,NW,13.8,21.9,N/A,,Clear,320,2012-11-01 20:55:00
4:15 PM,46.4,26.6,46,29.97,10.0,NW,16.1,20.7,N/A,,Clear,320,2012-11-01 21:15:00
4:35 PM,46.4,26.6,46,29.97,10.0,NW,13.8,-,N/A,,Clear,320,2012-11-01 21:35:00
4:55 PM,46.4,26.6,46,29.97,10.0,NW,13.8,21.9,N/A,,Clear,320,2012-11-01 21:55:00
5:15 PM,46.4,24.8,43,29.97,10.0,NNW,13.8,-,N/A,,Clear,330,2012-11-01 22:15:00
5:35 PM,44.6,24.8,46,29.97,10.0,NNW,12.7,-,N/A,,Clear,340,2012-11-01 22:35:00
5:55 PM,42.8,24.8,49,29.97,10.0,NNW,9.2,-,N/A,,Clear,340,2012-11-01 22:55:00
6:15 PM,41.0,24.8,53,29.97,10.0,NNW,8.1,-,N/A,,Clear,340,2012-11-01 23:15:00
6:35 PM,39.2,24.8,56,29.98,10.0,NNW,6.9,-,N/A,,Clear,330,2012-11-01 23:35:00
6:55 PM,39.2,24.8,56,29.98,10.0,NNW,4.6,-,N/A,,Clear,330,2012-11-01 23:55:00
7:15 PM,35.6,24.8,65,29.99,10.0,NNW,5.8,-,N/A,,Clear,340,2012-11-02 00:15:00
7:35 PM,35.6,24.8,65,29.98,10.0,North,4.6,-,N/A,,Clear,350,2012-11-02 00:35:00
7:55 PM,35.6,21.2,56,29.98,10.0,North,9.2,-,N/A,,Clear,360,2012-11-02 00:55:00
8:15 PM,35.6,21.2,56,29.99,10.0,North,6.9,-,N/A,,Clear,350,2012-11-02 01:15:00
8:35 PM,33.8,21.2,60,30.00,10.0,North,5.8,-,N/A,,Clear,350,2012-11-02 01:35:00
8:55 PM,33.8,21.2,60,29.99,10.0,North,-9999.0,-,N/A,,Clear,0,2012-11-02 01:55:00
9:15 PM,33.8,21.2,60,30.00,10.0,NNW,5.8,-,N/A,,Clear,340,2012-11-02 02:15:00
9:35 PM,33.8,21.2,60,30.00,10.0,North,6.9,-,N/A,,Clear,350,2012-11-02 02:35:00
9:55 PM,32.0,21.2,64,30.01,10.0,North,6.9,-,N/A,,Clear,350,2012-11-02 02:55:00
10:15 PM,32.0,21.2,64,30.02,10.0,NNW,5.8,-,N/A,,Clear,340,2012-11-02 03:15:00
10:35 PM,32.0,21.2,64,30.01,10.0,North,5.8,-,N/A,,Clear,350,2012-11-02 03:35:00
10:55 PM,30.2,21.2,69,30.02,10.0,NNW,5.8,-,N/A,,Clear,330,2012-11-02 03:55:00
11:15 PM,30.2,21.2,69,30.03,10.0,NNW,5.8,-,N/A,,Clear,340,2012-11-02 04:15:00
11:35 PM,30.2,21.2,69,30.02,10.0,North,-9999.0,-,N/A,,Clear,0,2012-11-02 04:35:00
11:55 PM,30.2,21.2,69,30.03,10.0,North,4.6,-,N/A,,Clear,350,2012-11-02 04:55:00